Simultaneous Nadir Overpasses (SNOs) Predictions

Prediction of SNOs between GOES-15 and METOP-B Satellite Orbit:

Table of predicted SNOs for the next 14.0 days since TLE Epoch: 1/7/2023
Index Date Time (GOES-15) GOES-15 Lat,Lon METOP-B Lat,Lon Distance(km) Time Diff (sec)
1 01/07/2023 05:56:19 0.05,-127.94 0.30,-126.88 120.71 80
2 01/08/2023 18:15:10 -0.04,-127.91 0.73,-131.44 401.06 80
3 01/09/2023 17:57:11 -0.04,-127.94 -0.38,-126.44 170.75 80
4 01/11/2023 06:16:11 0.04,-128.03 -0.64,-131.04 342.83 80
5 01/12/2023 05:52:52 0.03,-128.05 0.48,-126.04 228.49 80
6 01/13/2023 18:11:43 -0.03,-128.02 0.54,-130.60 294.08 80
7 01/14/2023 17:53:43 -0.03,-128.04 -0.58,-125.61 277.29 80
8 01/16/2023 06:12:44 0.03,-128.12 -0.43,-130.20 236.93 80
9 01/17/2023 05:49:24 0.03,-128.13 0.69,-125.21 333.61 80
10 01/18/2023 18:08:15 -0.02,-128.09 0.38,-129.76 190.74 80
11 01/19/2023 17:50:15 -0.02,-128.10 -0.75,-124.76 379.64 80
